STARLINK-1712 (46581 NORAD) Tracking and Keplerian Element Data

This shows tracking and keplerian element data for the satellite.

Feedback or suggestion? Click here.




ElementValue
Catalog46581
NameSTARLINK-1712
Epoch Orbit178
Epoch Day338.66668981
Epoch Year2020
RAAN156.6428
Inclination53.0005
Eccentricity0.0002529
Argument of Perigee38.4021
Mean Anonmoly143.5041
Mean Motion15.62786853
Decay Rate-0.00025724
L11 46581U 20070BB 20338.66668981 -.00025724 00000-0 -27556-3 0 9999
L22 46581 53.0005 156.6428 0002529 38.4021 143.5041 15.62786853 1782

Live tracking and technical data element details for STARLINK-1712 (NORAD 46581). STARLINK-1712 can be tracked NOW for your location showing map with azimuth and elevation plus other details from your city location.

Track the satellite on the map from your city or location and see movement details for azimuth, elevation, latitude, longitude, range, height, and movement on the map or in text.







IsCatalogInMostPopularTable: catalog: 46581, numindb: 15
Update: records affected: 1



GetName: 46581 STARLINK-1712

Hit Count: updated at: Sat, 05 Dec 2020 06:13:17 GMT